{"data":{"norad_id":60523,"intl_designator":"2024-149BH","name":"PTD-R (TYVAK-0127)","alt_names":[],"object_type":"PAYLOAD","status":"ACTIVE","operator":null,"country":"US","launch_date":"2024-08-16","launch_site_code":"AFWTR","launch_vehicle":null,"mission":null,"orbit_class":"UNKNOWN","rcs_meters":null,"size_class":null,"mass_kg":null,"dimensions":null,"purposes":[],"wikipedia_slug":null,"has_3d_model":false,"image_url":null,"decayed_at":null,"tle_current":{"epoch":"2026-05-25T05:27:01.199808Z","epoch_age_seconds":55749,"freshness":"FRESH","line1":"1 60523U 24149BH  26145.22709722  .00227115  21261-4  69518-3 0  9991","line2":"2 60523  97.3780 243.8972 0002875 249.8734 110.2231 15.91905521 99765","mean_motion":15.91905521,"eccentricity":0.0002875,"inclination_deg":97.378,"raan_deg":243.8972,"arg_perigee_deg":249.8734,"mean_anomaly_deg":110.2231,"bstar":0.00069518,"rev_number":9976,"period_min":90.457629614566,"perigee_km":295.03170466308,"apogee_km":298.86988014371,"semimajor_km":6675.0877924034,"source":"CELESTRAK","updated_at":"2026-05-25T13:38:02.124419Z"}}}